�N����,����,�~����,�C��,���x,�C��,����,���ϕ���,�ő�u�ԕ���,�ő厞����,���˗�,�I�_���x,�n�����x,�ő啗���N��,DTYPE
"21/12/21","00:10",0.0,2.3,91.4,1012.6,309.5,2.1,2.7,321.9,0.00,1.1,8.6,"00:08:16",1
"21/12/21","00:20",0.0,2.0,91.8,1012.3,296.3,1.7,2.5,314.6,0.00,0.8,8.5,"00:12:40",1
"21/12/21","00:30",0.0,2.3,92.2,1012.3,290.8,2.1,2.5,315.9,0.00,1.2,8.6,"00:29:04",1
"21/12/21","00:40",0.0,2.6,92.5,1012.1,298.0,2.3,3.5,316.7,0.00,1.5,8.5,"00:33:28",1
"21/12/21","00:50",0.0,2.4,92.6,1012.1,312.7,2.0,2.7,313.1,0.00,1.4,8.4,"00:40:24",1
"21/12/21","01:00",0.0,1.9,93.0,1011.9,307.1,1.8,2.1,298.5,0.00,0.9,8.5,"00:51:20",1
"21/12/21","01:10",0.0,1.9,93.4,1012.1,311.7,2.1,2.7,329.0,0.00,1.0,8.3,"01:08:32",1
"21/12/21","01:20",0.0,1.8,93.5,1011.9,301.1,2.0,2.9,320.1,0.00,0.9,8.2,"01:10:56",1
"21/12/21","01:30",0.0,1.9,93.8,1012.1,290.6,1.6,2.7,319.8,0.00,1.0,8.3,"01:27:12",1
"21/12/21","01:40",0.0,1.7,93.9,1011.9,316.5,2.6,3.2,323.0,0.00,0.9,8.3,"01:34:24",1
"21/12/21","01:50",0.0,1.4,94.2,1011.9,304.0,1.3,2.2,323.5,0.00,0.6,8.1,"01:40:08",1
"21/12/21","02:00",0.0,1.9,94.4,1012.1,302.6,2.1,3.3,319.9,0.00,1.1,8.3,"01:55:04",1
"21/12/21","02:10",0.0,1.9,94.5,1012.1,299.7,1.7,2.6,313.1,0.00,1.2,8.4,"02:01:04",1
"21/12/21","02:20",0.0,1.8,94.6,1011.9,312.1,2.5,2.9,323.7,0.00,1.1,7.9,"02:19:12",1
"21/12/21","02:30",0.0,1.5,94.8,1011.9,312.5,2.0,3.1,325.5,0.00,0.8,8.1,"02:20:24",1
"21/12/21","02:40",0.0,1.5,95.0,1011.9,297.8,1.0,2.0,312.4,0.00,0.8,8.1,"02:33:20",1
"21/12/21","02:50",0.0,1.4,95.2,1011.9,306.4,2.0,2.7,322.4,0.00,0.8,8.1,"02:47:12",1
"21/12/21","03:00",0.0,1.3,95.3,1011.6,304.8,1.8,2.4,320.3,0.00,0.7,8.0,"02:59:44",1
"21/12/21","03:10",0.0,1.2,95.4,1011.9,316.1,2.0,2.7,316.6,0.00,0.6,7.9,"03:05:44",1
"21/12/21","03:20",0.0,1.2,95.6,1011.6,297.5,1.5,2.5,327.4,0.00,0.6,8.0,"03:10:24",1
"21/12/21","03:30",0.0,1.2,95.6,1011.4,307.3,1.7,2.7,329.8,0.00,0.6,7.9,"03:23:04",1
"21/12/21","03:40",0.0,1.3,95.9,1011.4,294.5,1.7,2.2,318.7,0.00,0.8,7.9,"03:30:02",1
"21/12/21","03:50",0.0,1.3,96.0,1011.4,306.7,1.6,2.1,315.3,0.00,0.8,7.7,"03:40:08",1
"21/12/21","04:00",0.0,1.1,96.0,1010.9,295.6,1.2,1.7,312.3,0.00,0.6,7.9,"03:58:24",1
"21/12/21","04:10",0.0,1.2,96.2,1011.2,322.6,2.1,3.2,323.4,0.00,0.7,7.8,"04:09:28",1
"21/12/21","04:20",0.0,1.0,96.3,1010.9,313.1,2.0,3.2,320.8,0.00,0.5,7.7,"04:10:16",1
"21/12/21","04:30",0.0,1.0,96.5,1010.7,278.0,1.0,1.6,281.8,0.00,0.5,7.8,"04:21:12",1
"21/12/21","04:40",0.0,1.5,96.5,1010.9,315.5,2.1,2.8,319.3,0.00,1.0,7.8,"04:37:28",1
"21/12/21","04:50",0.0,1.2,96.6,1010.7,306.2,2.2,3.4,324.6,0.00,0.8,7.7,"04:42:08",1
"21/12/21","05:00",0.0,1.2,96.7,1010.9,283.2,1.5,1.9,273.8,0.00,0.8,7.7,"04:52:40",1
"21/12/21","05:10",0.0,1.5,96.9,1010.7,286.4,1.7,2.4,310.6,0.00,1.1,7.7,"05:04:24",1
"21/12/21","05:20",0.0,1.7,96.8,1010.7,308.7,2.3,3.5,321.7,0.00,1.3,7.7,"05:18:48",1
"21/12/21","05:30",0.0,1.4,96.9,1010.9,311.0,2.6,3.1,318.5,0.00,1.0,7.4,"05:20:24",1
"21/12/21","05:40",0.0,1.3,97.1,1010.9,311.1,2.3,2.7,318.0,0.00,0.9,7.5,"05:32:56",1
"21/12/21","05:50",0.0,1.6,97.2,1010.9,303.8,1.8,2.7,316.6,0.00,1.2,7.5,"05:42:00",1
"21/12/21","06:00",0.0,1.7,97.2,1010.7,284.3,0.5,2.1,304.9,0.00,1.3,7.6,"05:59:52",1
"21/12/21","06:10",0.0,1.9,97.3,1010.9,309.1,2.3,3.3,321.4,0.00,1.6,7.7,"06:08:24",1
"21/12/21","06:20",0.0,2.0,97.3,1011.2,320.7,2.2,2.9,316.0,0.00,1.7,7.6,"06:10:08",1
"21/12/21","06:30",0.0,2.2,97.4,1010.9,298.4,1.7,2.1,306.3,0.00,1.9,7.5,"06:23:36",1
"21/12/21","06:40",0.0,2.3,97.4,1011.4,297.6,1.7,2.2,309.1,0.00,2.0,7.6,"06:31:36",1
"21/12/21","06:50",0.0,2.5,97.5,1011.4,294.3,0.8,2.0,307.9,0.00,2.2,7.6,"06:42:08",1
"21/12/21","07:00",0.0,2.7,97.5,1011.2,303.9,1.6,2.5,320.5,0.00,2.4,7.5,"06:56:48",1
"21/12/21","07:10",0.0,2.7,97.4,1011.4,288.9,1.3,1.6,306.2,0.00,2.4,7.4,"07:00:16",1
"21/12/21","07:20",0.0,2.8,97.5,1011.2,307.6,1.2,1.8,311.9,0.00,2.5,7.5,"07:14:32",1
"21/12/21","07:30",0.0,2.8,97.6,1011.4,313.1,2.0,2.8,323.6,0.00,2.5,7.4,"07:27:36",1
"21/12/21","07:40",0.0,2.8,97.7,1011.6,319.4,2.3,2.7,320.9,0.00,2.5,7.5,"07:31:36",1
"21/12/21","07:50",0.0,2.9,97.7,1011.6,302.9,1.5,2.0,312.8,0.00,2.6,7.6,"07:42:16",1
"21/12/21","08:00",0.0,3.1,97.8,1011.6,290.6,0.5,1.6,304.3,0.00,2.8,7.3,"07:51:20",1
"21/12/21","08:10",0.0,3.3,97.8,1012.1,292.1,1.0,1.3,281.5,0.00,3.0,7.5,"08:07:20",1
"21/12/21","08:20",0.0,3.5,97.9,1012.1,313.9,1.8,2.5,323.6,0.01,3.2,7.5,"08:17:36",1
"21/12/21","08:30",0.0,3.7,97.9,1012.1,292.2,1.2,1.9,313.3,0.01,3.4,7.4,"08:24:16",1
"21/12/21","08:40",0.0,4.0,97.9,1012.3,308.6,1.7,2.2,323.2,0.02,3.7,7.5,"08:37:52",1
"21/12/21","08:50",0.0,4.3,97.9,1012.3,301.9,1.2,1.9,319.1,0.03,4.0,7.6,"08:44:56",1
"21/12/21","09:00",0.0,4.6,97.8,1012.6,280.3,1.2,1.4,268.1,0.04,4.3,7.5,"08:55:12",1
"21/12/21","09:10",0.0,4.8,97.8,1012.6,278.1,1.1,1.3,287.0,0.04,4.5,7.4,"09:00:16",1
"21/12/21","09:20",0.0,5.1,97.8,1012.3,294.6,1.0,1.6,326.0,0.05,4.8,7.6,"09:17:28",1
"21/12/21","09:30",0.0,5.2,97.8,1012.6,310.5,1.8,3.1,323.2,0.07,4.9,7.6,"09:28:16",1
"21/12/21","09:40",0.0,5.5,97.8,1012.3,279.8,1.2,2.0,269.7,0.10,5.2,7.4,"09:38:32",1
"21/12/21","09:50",0.0,6.1,97.9,1013.0,302.2,1.1,2.0,316.4,0.14,5.8,7.7,"09:46:18",1
"21/12/21","10:00",0.0,6.6,96.9,1013.0,289.5,1.3,2.4,319.3,0.21,6.2,7.6,"09:51:36",1
"21/12/21","10:10",0.0,6.8,96.4,1012.8,259.4,1.0,1.8,259.7,0.23,6.3,7.6,"10:02:32",1
"21/12/21","10:20",0.0,7.2,96.0,1013.0,246.9,1.0,2.1,244.2,0.25,6.6,7.9,"10:11:50",1
"21/12/21","10:30",0.0,7.8,95.7,1013.3,244.0,0.8,1.9,328.0,0.26,7.2,7.7,"10:29:02",1
"21/12/21","10:40",0.0,8.0,95.0,1013.3,233.2,0.7,1.6,254.3,0.28,7.3,7.8,"10:33:40",1
"21/12/21","10:50",0.0,8.2,93.4,1013.8,181.3,0.8,1.9,137.8,0.29,7.2,7.7,"10:47:16",1
"21/12/21","11:00",0.0,8.5,91.9,1014.0,173.5,0.8,2.2,116.2,0.31,7.3,7.7,"10:56:26",1
"21/12/21","11:10",0.0,9.2,88.6,1013.3,196.6,1.0,1.9,200.0,0.32,7.5,7.7,"11:04:48",1
"21/12/21","11:20",0.0,9.7,84.4,1013.3,185.5,1.1,2.1,125.5,0.33,7.2,7.9,"11:15:52",1
"21/12/21","11:30",0.0,10.1,79.9,1013.0,151.6,1.2,2.6,133.8,0.34,6.8,7.9,"11:28:08",1
"21/12/21","11:40",0.0,10.5,76.2,1012.3,177.5,1.0,2.2,116.1,0.35,6.5,8.0,"11:34:56",1
"21/12/21","11:50",0.0,10.8,73.9,1012.3,151.8,1.2,2.6,174.1,0.36,6.4,8.3,"11:42:08",1
"21/12/21","12:00",0.0,11.3,72.2,1011.9,163.8,0.8,2.0,148.7,0.36,6.5,8.2,"11:55:28",1
"21/12/21","12:10",0.0,11.7,70.2,1011.9,175.4,1.0,2.6,130.1,0.37,6.5,8.3,"12:08:54",1
"21/12/21","12:20",0.0,12.3,69.0,1011.4,201.0,0.8,2.1,142.5,0.37,6.8,8.4,"12:19:52",1
"21/12/21","12:30",0.0,12.7,68.5,1011.2,205.2,1.0,2.1,167.2,0.38,7.1,8.2,"12:24:16",1
"21/12/21","12:40",0.0,12.6,66.8,1010.4,145.8,1.0,2.4,69.5,0.28,6.6,8.4,"12:30:40",1
"21/12/21","12:50",0.0,12.7,66.7,1010.2,120.9,1.1,2.1,117.2,0.29,6.7,8.6,"12:42:32",1
"21/12/21","13:00",0.0,13.6,66.7,1010.2,128.5,0.7,1.9,141.7,0.38,7.6,8.7,"12:51:44",1
"21/12/21","13:10",0.0,14.2,63.7,1010.2,5.8,1.2,4.8,303.7,0.37,7.5,8.8,"13:09:28",1
"21/12/21","13:20",0.0,14.5,61.9,1009.5,296.3,1.6,3.9,307.2,0.37,7.3,8.8,"13:18:24",1
"21/12/21","13:30",0.0,14.8,61.3,1010.0,264.0,2.3,4.5,259.9,0.38,7.5,8.8,"13:28:08",1
"21/12/21","13:40",0.0,14.6,59.9,1009.5,257.9,3.0,6.7,246.8,0.40,6.9,9.0,"13:36:32",1
"21/12/21","13:50",0.0,14.8,59.3,1009.7,252.5,2.6,4.9,213.9,0.38,7.0,9.1,"13:48:56",1
"21/12/21","14:00",0.0,14.8,58.0,1009.3,257.6,2.1,5.9,235.1,0.31,6.7,9.2,"13:57:04",1
"21/12/21","14:10",0.0,14.9,57.6,1009.0,276.5,2.2,4.2,238.0,0.29,6.7,9.2,"14:05:12",1
"21/12/21","14:20",0.0,15.2,57.5,1009.0,262.9,2.1,4.3,238.4,0.29,6.9,9.3,"14:11:04",1
"21/12/21","14:30",0.0,15.0,56.5,1009.0,288.6,2.5,4.9,329.9,0.24,6.5,9.4,"14:26:16",1
"21/12/21","14:40",0.0,14.9,57.0,1009.0,286.2,2.8,5.2,340.6,0.26,6.5,9.5,"14:30:08",1
"21/12/21","14:50",0.0,14.9,55.5,1009.0,276.7,2.6,4.4,287.1,0.25,6.1,9.5,"14:47:20",1
"21/12/21","15:00",0.0,14.9,56.3,1009.3,277.4,2.5,4.2,266.9,0.23,6.3,9.6,"14:54:56",1
"21/12/21","15:10",0.0,15.1,56.1,1009.3,292.2,2.5,4.7,283.6,0.20,6.5,9.7,"15:09:44",1
"21/12/21","15:20",0.0,14.8,57.0,1009.3,255.1,2.5,4.4,264.4,0.18,6.4,9.7,"15:19:52",1
"21/12/21","15:30",0.0,14.5,57.2,1009.5,256.5,2.6,4.1,232.3,0.12,6.2,9.9,"15:29:52",1
"21/12/21","15:40",0.0,14.5,57.4,1009.5,263.6,2.3,5.4,227.3,0.13,6.2,9.7,"15:32:40",1
"21/12/21","15:50",0.0,14.3,57.4,1009.5,243.5,2.7,4.7,240.4,0.12,6.0,9.9,"15:45:52",1
"21/12/21","16:00",0.0,14.2,57.7,1009.7,243.3,2.6,5.2,240.1,0.09,6.0,9.8,"15:57:04",1
"21/12/21","16:10",0.0,14.2,57.5,1010.0,266.7,2.1,4.3,239.8,0.06,6.0,10.0,"16:05:20",1
"21/12/21","16:20",0.0,14.1,58.1,1010.2,282.4,1.8,2.9,307.8,0.04,6.0,9.9,"16:12:08",1
"21/12/21","16:30",0.0,13.7,59.1,1010.0,262.8,1.7,3.1,227.6,0.02,5.9,10.0,"16:20:02",1
"21/12/21","16:40",0.0,13.2,60.8,1010.2,253.5,2.1,4.1,242.6,0.00,5.8,10.0,"16:37:20",1
"21/12/21","16:50",0.0,12.9,62.1,1010.0,265.8,2.1,4.8,235.8,0.00,5.9,10.0,"16:41:28",1
"21/12/21","17:00",0.0,12.6,62.9,1010.2,259.5,2.2,4.0,253.5,0.00,5.8,10.1,"16:58:50",1
"21/12/21","17:10",0.0,12.3,63.9,1010.2,266.3,2.0,3.9,255.9,0.00,5.7,10.2,"17:01:44",1
"21/12/21","17:20",0.0,11.9,65.5,1010.2,285.4,1.7,2.7,322.9,0.00,5.7,10.0,"17:17:26",1
"21/12/21","17:30",0.0,11.0,68.5,1010.7,302.8,2.0,3.2,305.5,0.00,5.5,10.0,"17:24:08",1
"21/12/21","17:40",0.0,10.2,71.2,1010.2,296.7,1.8,2.2,285.9,0.00,5.3,10.1,"17:34:32",1
"21/12/21","17:50",0.0,9.7,73.1,1010.2,312.2,2.1,2.8,334.3,0.00,5.2,10.2,"17:41:36",1
"21/12/21","18:00",0.0,9.3,74.8,1010.2,296.6,2.0,2.7,338.0,0.00,5.1,10.0,"17:54:40",1
"21/12/21","18:10",0.0,8.9,76.2,1010.2,302.4,1.7,2.6,318.4,0.00,5.0,10.1,"18:04:40",1
"21/12/21","18:20",0.0,8.4,77.2,1010.4,302.3,1.5,2.1,314.1,0.00,4.7,10.1,"18:12:48",1
"21/12/21","18:30",0.0,8.3,79.0,1010.4,281.5,1.8,2.7,265.8,0.00,4.9,10.1,"18:20:02",1
"21/12/21","18:40",0.0,8.2,80.7,1010.4,289.0,2.0,2.8,262.3,0.00,5.1,9.8,"18:30:16",1
"21/12/21","18:50",0.0,8.2,82.2,1010.7,300.5,2.2,2.7,331.3,0.00,5.4,10.0,"18:46:16",1
"21/12/21","19:00",0.0,7.9,83.4,1010.7,302.3,2.1,3.2,329.1,0.00,5.3,10.1,"18:50:24",1
"21/12/21","19:10",0.0,7.7,84.3,1010.7,288.7,1.8,2.4,301.5,0.00,5.3,9.9,"19:02:16",1
"21/12/21","19:20",0.0,7.6,85.3,1010.4,284.5,1.8,2.2,308.6,0.00,5.3,9.9,"19:18:24",1
"21/12/21","19:30",0.0,7.4,86.1,1010.7,309.3,2.2,2.9,303.7,0.00,5.3,9.8,"19:26:48",1
"21/12/21","19:40",0.0,7.0,86.8,1010.7,286.4,1.8,2.6,327.4,0.00,5.0,9.5,"19:31:04",1
"21/12/21","19:50",0.0,6.9,87.3,1010.4,293.5,2.0,2.5,314.3,0.00,5.0,9.7,"19:45:36",1
"21/12/21","20:00",0.0,6.7,88.0,1010.2,297.0,1.7,2.2,317.7,0.00,4.9,9.8,"19:51:44",1
"21/12/21","20:10",0.0,6.5,88.4,1010.4,292.2,1.5,2.1,269.7,0.00,4.8,9.7,"20:01:20",1
"21/12/21","20:20",0.0,6.5,89.0,1010.4,305.6,1.7,2.8,310.8,0.00,4.9,9.8,"20:16:32",1
"21/12/21","20:30",0.0,6.5,89.4,1010.4,279.5,1.5,2.0,318.2,0.00,4.9,9.8,"20:20:56",1
"21/12/21","20:40",0.0,6.6,89.6,1010.4,281.9,1.7,2.2,267.6,0.00,5.1,9.6,"20:32:00",1
"21/12/21","20:50",0.0,6.4,90.0,1010.4,303.1,1.7,2.6,319.2,0.00,4.9,9.6,"20:46:16",1
"21/12/21","21:00",0.0,6.0,90.3,1010.4,312.6,1.3,2.2,294.7,0.00,4.6,9.6,"20:52:08",1
"21/12/21","21:10",0.0,5.7,90.7,1010.7,314.1,1.5,2.1,322.1,0.00,4.3,9.6,"21:02:42",1
"21/12/21","21:20",0.0,5.5,91.1,1010.2,311.1,1.7,2.2,321.8,0.00,4.2,9.4,"21:13:20",1
"21/12/21","21:30",0.0,5.3,91.3,1010.7,304.6,1.2,1.8,308.8,0.00,4.0,9.3,"21:20:32",1
"21/12/21","21:40",0.0,5.1,91.7,1010.4,311.1,1.7,2.4,320.9,0.00,3.9,9.3,"21:32:48",1
"21/12/21","21:50",0.0,5.3,91.9,1010.7,305.0,1.7,2.4,305.6,0.00,4.1,9.2,"21:41:36",1
"21/12/21","22:00",0.0,5.4,92.2,1010.7,305.2,1.7,2.2,320.4,0.00,4.3,9.4,"21:54:56",1
"21/12/21","22:10",0.0,5.5,92.4,1010.2,318.5,1.7,2.6,319.3,0.00,4.4,9.2,"22:09:20",1
"21/12/21","22:20",0.0,5.0,92.6,1010.0,302.6,1.1,2.4,321.8,0.00,3.9,9.2,"22:11:04",1
"21/12/21","22:30",0.0,5.0,93.0,1010.2,299.1,0.7,2.2,321.5,0.00,4.0,9.2,"22:28:56",1
"21/12/21","22:40",0.0,4.3,93.2,1010.2,317.7,2.2,2.8,319.7,0.00,3.3,9.2,"22:32:32",1
"21/12/21","22:50",0.0,4.3,93.6,1010.2,313.7,1.7,2.8,319.2,0.00,3.4,9.1,"22:41:36",1
"21/12/21","23:00",0.0,4.1,93.8,1010.0,294.4,1.5,1.9,308.5,0.00,3.2,9.1,"22:51:12",1
"21/12/21","23:10",0.0,4.1,94.0,1010.0,299.3,1.5,2.4,316.8,0.00,3.3,9.0,"23:08:48",1
"21/12/21","23:20",0.0,3.8,94.2,1010.4,289.6,1.5,2.1,311.0,0.00,3.0,9.1,"23:10:02",1
"21/12/21","23:30",0.0,3.9,94.4,1010.2,303.9,1.7,2.6,318.9,0.00,3.1,9.0,"23:20:32",1
"21/12/21","23:40",0.0,4.2,94.5,1010.2,315.5,2.0,3.3,315.9,0.00,3.4,9.1,"23:38:32",1
"21/12/21","23:50",0.0,3.8,94.7,1010.2,305.9,1.6,3.1,322.5,0.00,3.1,9.0,"23:40:08",1
"21/12/21","24:00",0.0,3.8,94.9,1010.0,302.1,1.8,2.2,315.3,0.00,3.1,8.9,"23:52:32",1
